Location: Bothwell
(41.7170°N, 112.2589°W)
Time: 01:55:32
(UTC+00:00)

Tiros 1 - Pass Details

Date: 13 May 2026
Orbit: 618 x 649 km, 48.4° (Epoch: 6 June)

Event Time Altitude Azimuth Distance (km) Brightness Sun altitude
Rises 15:01:24 0° 286° (WNW) 2,886 10.0 29.9°
Reaches altitude 10° 15:04:28 10° 265° (W) 1,976 9.2 30.5°
Maximum altitude 15:07:13 16° 227° (SW) 1,617 9.0 31.0°
Drops below altitude 10° 15:09:58 10° 190° (S) 1,971 9.7 31.5°
Sets 15:13:02 0° 168° (SSE) 2,875 10.7 32.1°
